Huron, SD

2:43 AM CDT on July 24, 2017 (GMT -0500)
Huron Regional

Weather History for KHON - February, 2013

Change the Weather History Date:

Friday, February 15, 2013

  Actual Average Record
Temperature  
Mean Temperature 13 °F 21 °F  
Max Temperature 21 °F 32 °F 66 °F (1921)
Min Temperature 4 °F 11 °F -28 °F (1958)
Degree Days  
Heating Degree Days 52 44  
Month to date heating degree days 623 682  
Since 1 July heating degree days 5190 5299  
Cooling Degree Days 0 0  
Month to date cooling degree days 0 0  
Year to date cooling degree days 0 0  
Moisture  
Dew Point 10 °F    
Average Humidity 82    
Maximum Humidity 92    
Minimum Humidity 71    
Precipitation  
Precipitation 0.05 in 0.02 in 0.46 in (1990)
Month to date precipitation 0.91 0.29  
Year to date precipitation 1.19 0.79  
Snow  
Snow 0.50 in 0.30 in 10.70 in (1990)
Month to date snowfall 10.3 3.7  
Since 1 July snowfall 29.7 27.3  
Snow Depth 10.00 in    
Sea Level Pressure  
Sea Level Pressure 30.37 in    
Wind  
Wind Speed 4 mph (NE)    
Max Wind Speed 10 mph    
Max Gust Speed 12 mph    
Visibility 6 miles    
Events Fog , Snow    
T = Trace of Precipitation, MM = Missing Value Source: NWS Daily Summary

Daily Weather History Graph

Daily Weather History Graph

Search for Another Location

Airport or City:

Trip Planner

Search our weather history database for the weather conditions in past years. The results will help you decide how hot, cold, wet, or windy it might be!

Date:

Astronomy

Feb. 15, 2013 Rise Set
Actual Time 7:32 AM CST 6:02 PM CST
Civil Twilight 7:02 AM CST 6:32 PM CST
Nautical Twilight 6:28 AM CST 7:06 PM CST
Astronomical Twilight 5:54 AM CST 7:39 PM CST
Moon 9:54 AM CST (2/15) No Moon Set
Length of Visible Light 11h 29m
Length of Day
10h 30m
Waxing Crescent, 30% of the Moon is Illuminated
Feb 15
Waxing Crescent
Feb 17
First Quarter
Feb 25
Full
Mar 4
Last Quarter
Mar 11
New

Hourly Weather History & Observations

Time (CST) Temp. Windchill Dew Point Humidity Pressure Visibility Wind Dir Wind Speed Gust Speed Precip Events Conditions
12:55 AM 15.1 °F 7.7 °F 10.9 °F 84% 30.36 in 10.0 mi WNW 4.6 mph - N/A   Mostly Cloudy
1:55 AM 14.0 °F 2.9 °F 9.0 °F 80% 30.36 in 10.0 mi WNW 8.1 mph - N/A   Mostly Cloudy
2:55 AM 9.0 °F -3.2 °F 6.1 °F 88% 30.38 in 10.0 mi NW 8.1 mph - N/A   Clear
3:55 AM 9.0 °F 0.6 °F 5.0 °F 84% 30.38 in 10.0 mi West 4.6 mph - N/A   Mostly Cloudy
4:55 AM 10.9 °F - 7.0 °F 84% 30.37 in 10.0 mi Calm Calm - N/A   Overcast
5:55 AM 10.9 °F - 9.0 °F 92% 30.36 in 10.0 mi Calm Calm - N/A   Mostly Cloudy
6:55 AM 12.0 °F - 8.1 °F 84% 30.36 in 4.0 mi Calm Calm - 0.00 in Snow Light Snow
7:05 AM 12.2 °F - 8.6 °F 85% 30.28 in 2.5 mi Calm Calm - 0.00 in Snow Light Snow
7:16 AM 12.2 °F 6.1 °F 8.6 °F 85% 30.28 in 4.0 mi ESE 3.5 mph - 0.00 in Snow Light Snow
7:27 AM 10.4 °F 4.0 °F 8.6 °F 92% 30.28 in 7.0 mi SE 3.5 mph - 0.00 in   Overcast
7:55 AM 12.0 °F 4.1 °F 9.0 °F 88% 30.37 in 3.0 mi SE 4.6 mph - 0.00 in Snow Light Snow
7:59 AM 12.2 °F 4.3 °F 10.4 °F 92% 30.29 in 1.8 mi ESE 4.6 mph - 0.00 in Snow Light Snow
8:11 AM 12.2 °F 6.1 °F 10.4 °F 92% 30.29 in 0.8 mi ESE 3.5 mph - 0.00 in Snow Light Snow
8:23 AM 12.2 °F 6.1 °F 10.4 °F 92% 30.29 in 0.5 mi SE 3.5 mph - 0.01 in Fog , Snow Snow
8:55 AM 12.9 °F - 10.0 °F 88% 30.39 in 0.8 mi Calm Calm - 0.02 in Snow Light Snow
9:02 AM 12.2 °F 6.1 °F 10.4 °F 92% 30.30 in 1.2 mi SE 3.5 mph - 0.00 in Snow Light Snow
9:30 AM 12.2 °F 6.1 °F 10.4 °F 92% 30.31 in 2.0 mi SE 3.5 mph - 0.01 in Snow Light Snow
9:40 AM 14.0 °F 8.2 °F 10.4 °F 86% 30.31 in 4.0 mi ESE 3.5 mph - 0.01 in Snow Light Snow
9:55 AM 12.9 °F 6.9 °F 10.0 °F 88% 30.40 in 7.0 mi ESE 3.5 mph - 0.01 in   Overcast
10:12 AM 14.0 °F 8.2 °F 10.4 °F 86% 30.32 in 2.0 mi SSE 3.5 mph - 0.00 in Snow Light Snow
10:19 AM 14.0 °F - 10.4 °F 86% 30.32 in 1.2 mi Calm Calm - 0.00 in Snow Light Snow
10:55 AM 17.1 °F - 12.0 °F 81% 30.41 in 1.8 mi Calm Calm - 0.00 in Snow Light Snow
11:02 AM 15.8 °F 8.6 °F 12.2 °F 86% 30.34 in 2.0 mi NNE 4.6 mph - 0.00 in Snow Light Snow
11:09 AM 15.8 °F 8.6 °F 10.4 °F 79% 30.34 in 1.8 mi NNE 4.6 mph - 0.00 in Snow Light Snow
11:25 AM 17.6 °F 10.7 °F 12.2 °F 79% 30.34 in 0.8 mi NE 4.6 mph - 0.01 in Snow Light Snow
11:43 AM 17.6 °F 12.3 °F 12.2 °F 79% 30.35 in 1.2 mi NE 3.5 mph - 0.01 in Snow Light Snow
11:53 AM 17.6 °F 12.3 °F 12.2 °F 79% 30.35 in 2.0 mi ENE 3.5 mph - 0.01 in Snow Light Snow
11:55 AM 18.0 °F 12.7 °F 12.9 °F 81% 30.42 in 2.0 mi ENE 3.5 mph - 0.02 in Snow Light Snow
12:08 PM 19.4 °F - 14.0 °F 80% 30.35 in 3.0 mi Calm Calm - 0.00 in Snow Light Snow
12:55 PM 21.0 °F 16.2 °F 14.0 °F 74% 30.43 in 9.0 mi NNW 3.5 mph - 0.00 in   Scattered Clouds
1:42 PM 19.4 °F 10.4 °F 14.0 °F 80% 30.35 in 7.0 mi North 6.9 mph - N/A   Mostly Cloudy
1:52 PM 21.2 °F 13.6 °F 14.0 °F 74% 30.35 in 10.0 mi North 5.8 mph - N/A   Scattered Clouds
1:55 PM 21.0 °F 13.4 °F 14.0 °F 74% 30.43 in 10.0 mi NNW 5.8 mph - N/A   Scattered Clouds
2:55 PM 21.0 °F 13.4 °F 14.0 °F 74% 30.43 in 10.0 mi North 5.8 mph - N/A   Clear
3:55 PM 19.0 °F 8.2 °F 12.9 °F 77% 30.44 in 10.0 mi NW 9.2 mph - N/A   Partly Cloudy
4:55 PM 17.1 °F 7.6 °F 12.0 °F 81% 30.45 in 10.0 mi NW 6.9 mph - N/A   Clear
5:55 PM 10.0 °F 0.4 °F 8.1 °F 92% 30.45 in 10.0 mi WNW 5.8 mph - N/A   Clear
6:55 PM 7.0 °F -1.7 °F 3.9 °F 87% 30.43 in 9.0 mi West 4.6 mph - N/A   Partly Cloudy
7:55 PM 10.0 °F 3.6 °F 8.1 °F 92% 30.42 in 8.0 mi WSW 3.5 mph - N/A   Clear
8:55 PM 7.0 °F -3.3 °F 5.0 °F 92% 30.41 in 10.0 mi SW 5.8 mph - N/A   Clear
9:55 PM 6.1 °F -2.8 °F 1.9 °F 83% 30.39 in 9.0 mi SSW 4.6 mph - N/A   Clear
10:55 PM 6.1 °F -4.3 °F 3.0 °F 87% 30.37 in 10.0 mi SW 5.8 mph - N/A   Clear
11:55 PM 7.0 °F 0.1 °F 3.9 °F 87% 30.33 in 10.0 mi South 3.5 mph - N/A   Clear